SHIJIAN-21 (SJ-21)

Last updated on Thu Mar 05 2026 00:02:59 GMT+0000 (Coordinated Universal Time)

1 49330U 21094A 26063.83273334 -.00000356 00000+0 00000+0 0 9998 2 49330 4.8661 61.7673 0048301 171.5774 356.9499 1.00267910 4313
UTC large
Height (km)
Speed (km/s)
/
Latitude / Longitude
Inclination (degrees)
Orbital Period (minutes)
Azimuth
Elevation
Range (km)
Doppler Factor

Next 0 passes for location: London (51.5072 / 0.1276)

Sorry there are no passes over London.